sat.trackr.live / text

‹ back to catalog

2025-313AB

NORAD 67273 · 2025-313AB

PAYLOAD ACTIVE UNKNOWN

§ Identity

Operator
Country
TBD
Launch date
2025-12-28
Launch site
VOSTO
Launch vehicle
Mass (kg)
RCS (m²)

External: N2YO · Heavens-Above · Gunter

§ Orbital elements

Epoch: 2026-05-25T03:48:41.889024Z

Period
94.68 min
Inclination
97.3962°
Eccentricity
0.0016001
Mean motion
15.20978151 rev/d
Perigee alt
491.9 km
Apogee alt
513.9 km
Semi-major
6,881.0 km
B*
1.3189e-4
RAAN
219.9956°
Arg perigee
92.4120°
Mean anomaly
267.8948°
Rev number
2,243

§ Raw data

2025-313AB1 67273U 25313AB  26145.15881816  .00002862  00000+0  13189-3 0  99972 67273  97.3962 219.9956 0016001  92.4120 267.8948 15.20978151 22434

JSON: /api/v1/satellites/67273 · /tle

For live sub-satellite position, see the globe view (requires WebGL).

§ Visibility from observer

Set your observer location to see the next 7 days of passes ≥ 10°. The values pass through the URL so the page stays shareable.

No JS? Fill the form by hand. The geolocation button needs JavaScript.